Yellowknife, Northwest Territories

1:10 PM MDT on October 01, 2016 (GMT -0600)
Yellowknife

Weather History for 71936 - August, 2013

Change the Weather History Date:

Wednesday, August 7, 2013

  Actual Average Record
Temperature  
Mean Temperature 62 °F -  
Max Temperature 73 °F - - ()
Min Temperature 52 °F - - ()
Degree Days  
Heating Degree Days 2    
Growing Degree Days 12 (Base 50)    
Moisture  
Dew Point 48 °F    
Average Humidity 57    
Maximum Humidity 82    
Minimum Humidity 30    
Precipitation  
Precipitation 0.00 in - - ()
Sea Level Pressure  
Sea Level Pressure 30.27 in    
Wind  
Wind Speed 6 mph ()    
Max Wind Speed 12 mph    
Max Gust Speed -    
Visibility 15.0 miles    
Events      
T = Trace of Precipitation, MM = Missing Value Source: Averaged Metar Reports

Daily Weather History Graph

Daily Weather History Graph

Search for Another Location

Airport or City:

Trip Planner

Search our weather history database for the weather conditions in past years. The results will help you decide how hot, cold, wet, or windy it might be!

Date:

Astronomy

Aug. 07, 2013 Rise Set
Actual Time 5:17 AM MDT 10:07 PM MDT
Civil Twilight 4:12 AM MDT 11:11 PM MDT
Nautical Twilight 2:15 AM MDT 1:10 AM MDT
Astronomical Twilight Sun does not rise Sun does not rise
Moon 6:51 AM MDT (8/7) 9:25 PM MDT (8/7)
Length of Visible Light 18h 59m
Length of Day
16h 49m
New Moon, 1% of the Moon is Illuminated
Aug 7
New Moon
Aug 14
First Quarter
Aug 20
Full
Aug 28
Last Quarter
Sep 5
New

Hourly Weather History & Observations

Time (MDT) Temp. Dew Point Humidity Pressure Visibility Wind Dir Wind Speed Gust Speed Precip Events Conditions
12:00 AM 61 °F 47 °F 50% 30.24 in 15 mi East 5.8 mph - -   Clear
12:00 AM 60.8 °F 46.4 °F 59% 30.23 in 15.0 mi East 5.8 mph - N/A   Partly Cloudy
1:00 AM 60.8 °F 48.2 °F 63% 30.24 in 15.0 mi ESE 6.9 mph - N/A   Clear
2:00 AM 59.0 °F 48.2 °F 67% 30.25 in 15.0 mi East 8.1 mph - N/A   Partly Cloudy
3:00 AM 59.0 °F 48.2 °F 67% 30.25 in 15.0 mi ENE 4.6 mph - N/A   Clear
4:00 AM 53.6 °F 48.2 °F 82% 30.27 in 15.0 mi ENE 3.5 mph - N/A   Partly Cloudy
5:00 AM 55.4 °F 48.2 °F 77% 30.27 in 15.0 mi ENE 4.6 mph - N/A   Partly Cloudy
6:00 AM 56 °F 49 °F 72% 30.28 in 15 mi ENE 5.8 mph - -   Scattered Clouds
6:00 AM 55.4 °F 50.0 °F 82% 30.28 in 15.0 mi ENE 5.8 mph - N/A   Partly Cloudy
7:00 AM 59.0 °F 50.0 °F 72% 30.28 in 15.0 mi ENE 5.8 mph - N/A   Partly Cloudy
8:00 AM 60.8 °F 50.0 °F 68% 30.28 in 15.0 mi East 4.6 mph - N/A   Partly Cloudy
9:00 AM 64.4 °F 50.0 °F 59% 30.28 in 15.0 mi ENE 4.6 mph - N/A   Partly Cloudy
10:00 AM 68.0 °F 50.0 °F 52% 30.28 in 15.0 mi ENE 6.9 mph - N/A   Partly Cloudy
11:00 AM 68.0 °F 46.4 °F 46% 30.28 in 15.0 mi East 5.8 mph - N/A   Partly Cloudy
12:00 PM 70 °F 45 °F 30% 30.28 in 15 mi East 6.9 mph - -   Partly Cloudy
12:00 PM 69.8 °F 44.6 °F 40% 30.28 in 15.0 mi ENE 3.5 mph - N/A   Scattered Clouds
1:00 PM 69.8 °F 46.4 °F 43% 30.28 in 15.0 mi East 5.8 mph - N/A   Scattered Clouds
2:00 PM 71.6 °F 48.2 °F 43% 30.27 in 15.0 mi SSE 6.9 mph - N/A   Scattered Clouds
3:00 PM 68.0 °F 48.2 °F 49% 30.27 in 15.0 mi SSW 10.4 mph - N/A   Partly Cloudy
4:00 PM 69.8 °F 48.2 °F 46% 30.27 in 15.0 mi SSW 8.1 mph - N/A   Partly Cloudy
5:00 PM 68.0 °F 46.4 °F 46% 30.27 in 15.0 mi SSW 8.1 mph - N/A   Partly Cloudy
6:00 PM 67 °F 47 °F 37% 30.27 in 15 mi SSW 9.2 mph - -   Scattered Clouds
6:00 PM 68.0 °F 46.4 °F 46% 30.27 in 15.0 mi South 11.5 mph - N/A   Partly Cloudy
7:00 PM 66.2 °F 46.4 °F 49% 30.26 in 15.0 mi South 9.2 mph - N/A   Partly Cloudy
8:00 PM 64.4 °F 46.4 °F 52% 30.26 in 15.0 mi SSW 9.2 mph - N/A   Partly Cloudy
9:00 PM 62.6 °F 46.4 °F 55% 30.26 in 15.0 mi South 5.8 mph - N/A   Partly Cloudy
10:00 PM 60.8 °F 48.2 °F 63% 30.26 in 15.0 mi SSW 4.6 mph - N/A   Partly Cloudy
11:00 PM 57.2 °F 48.2 °F 72% 30.27 in 15.0 mi SSE 4.6 mph - N/A   Partly Cloudy